Tracking 28091 objects as of 30-Sep-2023
HD Live streaming from Space Station
objects crossing your sky now

STARLINK-6294

Track STARLINK-6294 now!
10-day predictions
STARLINK-6294 is classified as:


NORAD ID: 57225
Int'l Code: 2023-094H
Perigee: 565.2 km
Apogee: 567.0 km
Inclination: 43.0 °
Period: 95.8 minutes
Semi major axis: 6937 km
RCS: Unknown
Launch date: July 7, 2023
Source: United States (US)
Launch site: AIR FORCE WESTERN TEST RANGE (AFWTR)
Your satellite tracking list
Your tracking list is empty




NASA's NSSDC Master Catalog

Two Line Element Set (TLE):
1 57225U 23094H   23273.19277515 -.00004448  00000-0 -31410-3 0  9997
2 57225  43.0016 194.6484 0001329 231.3786 128.6937 15.02573702 13011
Source of the keplerian elements: AFSPC